TimeCDT,TemperatureF,Dew PointF,Humidity,Sea Level PressureIn,VisibilityMPH,Wind Direction,Wind SpeedMPH,Gust SpeedMPH,PrecipitationIn,Events,Conditions,WindDirDegrees,DateUTC
12:15 AM,32.0,28.4,87,30.02,10.0,NNW,12.7,-,N/A,,Unknown,340,2012-10-25 05:15:00
12:35 AM,32.0,28.4,87,30.02,10.0,NNW,15.0,-,N/A,,Clear,330,2012-10-25 05:35:00
12:55 AM,32.0,28.4,87,30.01,10.0,NNW,12.7,-,N/A,,Clear,330,2012-10-25 05:55:00
1:15 AM,32.0,28.4,87,29.98,10.0,NNW,13.8,-,N/A,,Clear,340,2012-10-25 06:15:00
1:35 AM,32.0,28.4,87,29.99,10.0,NNW,15.0,18.4,N/A,,Clear,330,2012-10-25 06:35:00
1:55 AM,32.0,28.4,87,30.01,10.0,NW,12.7,-,N/A,,Clear,320,2012-10-25 06:55:00
2:35 AM,32.0,28.4,87,29.98,10.0,NNW,10.4,-,N/A,,Clear,330,2012-10-25 07:35:00
2:55 AM,32.0,28.4,87,29.99,10.0,NW,9.2,-,N/A,,Clear,320,2012-10-25 07:55:00
3:15 AM,32.0,28.4,87,29.99,10.0,NNW,11.5,-,N/A,,Unknown,330,2012-10-25 08:15:00
3:35 AM,32.0,28.4,87,29.99,10.0,NNW,12.7,-,N/A,,Unknown,330,2012-10-25 08:35:00
3:55 AM,32.0,28.4,87,30.00,10.0,NNW,18.4,-,N/A,,Unknown,340,2012-10-25 08:55:00
4:15 AM,32.0,26.6,80,30.00,10.0,NNW,18.4,24.2,N/A,,Unknown,340,2012-10-25 09:15:00
4:35 AM,32.0,26.6,80,30.01,10.0,NNW,19.6,-,N/A,,Unknown,340,2012-10-25 09:35:00
4:55 AM,32.0,26.6,80,30.03,10.0,NNW,13.8,-,N/A,,Unknown,330,2012-10-25 09:55:00
5:15 AM,32.0,26.6,80,30.03,10.0,NNW,12.7,-,N/A,,Unknown,330,2012-10-25 10:15:00
5:35 AM,32.0,26.6,80,30.03,10.0,NNW,11.5,-,N/A,,Unknown,330,2012-10-25 10:35:00
5:55 AM,32.0,28.4,87,30.03,10.0,NW,12.7,-,N/A,,Unknown,320,2012-10-25 10:55:00
6:35 AM,32.0,26.6,80,30.03,10.0,NW,18.4,24.2,N/A,,Unknown,310,2012-10-25 11:35:00
6:55 AM,32.0,26.6,80,30.04,10.0,NW,16.1,21.9,N/A,,Unknown,320,2012-10-25 11:55:00
7:15 AM,32.0,26.6,80,30.03,10.0,NW,19.6,27.6,N/A,,Unknown,320,2012-10-25 12:15:00
7:35 AM,32.0,26.6,80,30.03,10.0,NW,18.4,23.0,N/A,,Unknown,320,2012-10-25 12:35:00
7:55 AM,32.0,26.6,80,30.03,10.0,NW,17.3,24.2,N/A,,Unknown,310,2012-10-25 12:55:00
9:15 AM,32.0,24.8,75,30.03,10.0,NW,24.2,34.5,N/A,,Unknown,320,2012-10-25 14:15:00
9:35 AM,32.0,26.6,80,30.04,10.0,NW,20.7,27.6,N/A,,Unknown,320,2012-10-25 14:35:00
9:55 AM,32.0,24.8,75,30.04,10.0,NW,17.3,29.9,N/A,,Unknown,310,2012-10-25 14:55:00
10:15 AM,33.8,24.8,70,30.04,10.0,NW,25.3,38.0,N/A,,Unknown,320,2012-10-25 15:15:00
10:55 AM,-9999,-9999,N/A,30.04,-9999.0,NW,23.0,-,N/A,,Unknown,310,2012-10-25 15:55:00
11:15 AM,33.8,26.6,75,30.05,10.0,NW,19.6,28.8,N/A,,Unknown,310,2012-10-25 16:15:00
11:55 AM,35.6,24.8,65,30.04,10.0,NW,25.3,35.7,N/A,,Unknown,310,2012-10-25 16:55:00
12:15 PM,35.6,24.8,65,30.04,10.0,NW,21.9,29.9,N/A,,Unknown,310,2012-10-25 17:15:00
12:35 PM,35.6,23.0,60,30.04,10.0,NW,23.0,33.4,N/A,,Unknown,310,2012-10-25 17:35:00
12:55 PM,35.6,23.0,60,30.04,10.0,NW,26.5,35.7,N/A,,Overcast,310,2012-10-25 17:55:00
1:15 PM,35.6,23.0,60,30.05,10.0,NW,24.2,27.6,N/A,,Mostly Cloudy,310,2012-10-25 18:15:00
1:55 PM,37.4,23.0,56,30.05,10.0,NW,23.0,32.2,N/A,,Mostly Cloudy,310,2012-10-25 18:55:00
2:15 PM,37.4,24.8,60,30.04,10.0,WNW,25.3,31.1,N/A,,Scattered Clouds,300,2012-10-25 19:15:00
2:35 PM,37.4,23.0,56,30.05,10.0,WNW,23.0,32.2,N/A,,Mostly Cloudy,300,2012-10-25 19:35:00
2:55 PM,37.4,23.0,56,30.05,10.0,WNW,24.2,31.1,N/A,,Overcast,300,2012-10-25 19:55:00
3:15 PM,37.4,23.0,56,30.05,10.0,NW,24.2,31.1,N/A,,Overcast,310,2012-10-25 20:15:00
3:35 PM,37.4,23.0,56,30.06,10.0,NW,20.7,29.9,N/A,,Overcast,310,2012-10-25 20:35:00
3:55 PM,37.4,23.0,56,30.07,10.0,WNW,19.6,27.6,N/A,,Overcast,300,2012-10-25 20:55:00
4:35 PM,37.4,23.0,56,30.09,10.0,WNW,18.4,28.8,N/A,,Overcast,300,2012-10-25 21:35:00
4:55 PM,37.4,23.0,56,30.09,10.0,WNW,23.0,33.4,N/A,,Overcast,300,2012-10-25 21:55:00
5:15 PM,37.4,23.0,56,30.10,10.0,WNW,25.3,31.1,N/A,,Overcast,300,2012-10-25 22:15:00
5:35 PM,35.6,21.2,56,30.11,10.0,WNW,26.5,33.4,N/A,,Overcast,300,2012-10-25 22:35:00
5:55 PM,35.6,21.2,56,30.12,10.0,WNW,18.4,27.6,N/A,,Overcast,300,2012-10-25 22:55:00
6:15 PM,35.6,23.0,60,30.13,10.0,WNW,25.3,31.1,N/A,,Overcast,290,2012-10-25 23:15:00
6:35 PM,35.6,23.0,60,30.14,10.0,WNW,23.0,29.9,N/A,,Overcast,300,2012-10-25 23:35:00
6:55 PM,35.6,21.2,56,30.14,10.0,WNW,18.4,25.3,N/A,,Overcast,290,2012-10-25 23:55:00
7:15 PM,35.6,23.0,60,30.15,10.0,WNW,18.4,26.5,N/A,,Overcast,290,2012-10-26 00:15:00
7:35 PM,35.6,23.0,60,30.15,10.0,West,20.7,28.8,N/A,,Overcast,280,2012-10-26 00:35:00
8:15 PM,35.6,23.0,60,30.17,10.0,WNW,17.3,25.3,N/A,,Overcast,290,2012-10-26 01:15:00
8:35 PM,35.6,23.0,60,30.17,10.0,WNW,19.6,27.6,N/A,,Overcast,290,2012-10-26 01:35:00
8:55 PM,35.6,23.0,60,30.18,10.0,WNW,15.0,21.9,N/A,Rain,Light Rain,300,2012-10-26 01:55:00
9:15 PM,35.6,23.0,60,30.18,10.0,WNW,16.1,24.2,N/A,,Overcast,300,2012-10-26 02:15:00
9:35 PM,35.6,24.8,65,30.19,10.0,WNW,16.1,20.7,N/A,,Overcast,300,2012-10-26 02:35:00
9:55 PM,35.6,24.8,65,30.20,10.0,WNW,13.8,-,N/A,,Overcast,290,2012-10-26 02:55:00
10:15 PM,35.6,23.0,60,30.20,10.0,WNW,19.6,24.2,N/A,,Overcast,300,2012-10-26 03:15:00
10:55 PM,35.6,23.0,60,30.21,10.0,WNW,16.1,-,N/A,,Overcast,290,2012-10-26 03:55:00
11:15 PM,33.8,23.0,65,30.21,10.0,WNW,17.3,-,N/A,,Overcast,290,2012-10-26 04:15:00
11:35 PM,33.8,23.0,65,30.22,10.0,NW,19.6,25.3,N/A,,Overcast,310,2012-10-26 04:35:00
11:55 PM,33.8,23.0,65,30.22,10.0,WNW,16.1,20.7,N/A,,Overcast,300,2012-10-26 04:55:00